PEGASUS DEB

Satellite information

Favourite Embed

Satellite Type and Status

DEBRISIN ORBIT

Key statistics

Satellite PEGASUS DEB at a glance.

Uptime

11481

Days in orbit

Revolutions

≈ 14.6

Per day

Orbit

LEO

Low Earth Orbit

Inclination

81.9

Latest

Satellite identification and parameters

Extended collection of information and parameters for PEGASUS DEB.

Object identification

Identified? True

Debris? True

Object name: PEGASUS DEB

International designator: 1994-029AFD

Object number (NORAD): 39318

Object ID (CCSDS): 39318

Country: UNITED STATES OF AMERICA (US)

Current information (Y/N): Y

RCS size: SMALL

Orbital parameters

Period: 98.336 minutes

Inclination: 81.9412 deg

SMA: 7057.243 km

Apoapsis: 811.66 km

Periapsis: 546.556 km

RAAN: 305.5656 deg

Eccentricy: 0.0187824

Argument of periapsis: 36.0441 deg

Mean anomaly: 23.6951 deg

Mean motion: 14.64367638 rev/day

Mean motion (dot): 0.0000231 rev/day2

B* drag term: 0.00033401 1/REarth

Two-line elements (TLE)

Creation date: Oct. 23, 2025, 10:06 p.m.

Reference frame: TEME

Reference center: EARTH

Epoch: Oct. 23, 2025, 8:01 a.m. UTC

TLE line 0: 0 PEGASUS DEB

TLE line 1: 1 39318U 94029AFD 25296.33457353 .00002310 00000-0 33401-3 0 9995

TLE line 2: 2 39318 81.9412 305.5656 0187824 36.0441 23.6951 14.64367638243406

Live tracking on map

Real-time ground track for satellite PEGASUS DEB.

In-orbit conjunctions

A list of the most updated potential collisions computed for object PEGASUS DEB.

Target Orbit TCA Probability of collision Miss distance Type
FREGAT R/B LEO 2025-03-01 15:26:37 0.0001157123 392.0 (m) ROCKET BODY

Associated space launch

PEGASUS DEB was lifted into orbit during the mission ‘Pegasus HAPS | Space Test Experiments Platform 2 (STEP-2)’, on board a Pegasus HAPS space rocket.

The launch took place on May 19, 1994, 5:03 p.m. from Edwards Air Force Base.

For more information about the launch, click the button.

Launch to space Pegasus HAPS | Space Test Experiments Platform 2 (STEP-2)
Pegasus HAPS | Space Test Experiments Platform 2 (STEP-2)

Agency: N/A

Status: Launch Successful

Launch date: May 19, 1994, 5:03 p.m. UTC

Rocket: Pegasus HAPS

Launch pad: Edwards Air Force Base

Location: Air launch to orbit

...

Latest news about this satellite

There are no fresh news available about this satellite. Check back as we update our databases every day.


Newsletter sign-up

Weekly statistics, charts and insights to help you stay on top of the space industry.